Вернуться в каталог

COSMOS 2251 DEB

АктивенLEO
NORAD 34062·DEBRIS·🇷🇺 Russia

Запущен Jun 16, 1993 с Plesetsk Cosmodrome

Loading…

Ближайшие Пролёты (ближайшие 24 часа)

TLE

СвежийSource: Space-Track

Эпоха: Sep 14, 2026, 13:24 UTC

1 34062U 93036JZ  26257.55841500  .00008221  00000-0  90236-3 0  9992
2 34062  74.0257 311.8157 0069339 318.9623 110.2223 14.86055831926841

Отслеживайте COSMOS 2251 DEB в реальном времени с AllMySat

Download on the App Store